Location: Bieg
(49.3499°N, 10.3835°E)
Time: 21:36:58
(UTC+00:00)

SL-16 R/B - Pass Details

Date: 23 May 2024
Orbit: 842 x 845 km, 71.0° (Epoch: 22 June)

Event Time Altitude Azimuth Distance (km) Brightness Sun altitude
Rises 01:35:37 0° 327° (NNW) 3,416 5.7 -13.4°
Reaches altitude 10° 01:38:09 10° 322° (NW) 2,477 4.9 -13.1°
Maximum altitude 01:43:32 46° 251° (WSW) 1,129 2.5 -12.6°
Drops below altitude 10° 01:48:53 10° 179° (S) 2,461 4.1 -12.1°
Enters shadow 01:49:11 - 178° (S) 2,570 4.3 -12.1°
